Kenansville, NC

1:05 AM EDT on October 24, 2019 (GMT -0400)
Duplin County

Weather History for KDPL - August, 2019

Change the Weather History Date:

Wednesday, August 14, 2019

  Actual Average (KOAJ) Record (KOAJ)
Temperature  
Mean Temperature 85 °F -  
Max Temperature 95 °F 86 °F 98 °F (2019)
Min Temperature 75 °F 66 °F 59 °F (2008)
Cooling Degree Days 20    
Growing Degree Days 35 (Base 50)    
Moisture  
Dew Point 75 °F    
Average Humidity 79    
Maximum Humidity 100    
Minimum Humidity 49    
Precipitation  
Precipitation 0.34 in - - ()
Sea Level Pressure  
Sea Level Pressure 29.87 in    
Wind  
Wind Speed 3 mph (SW)    
Max Wind Speed 10 mph    
Max Gust Speed -    
Visibility 9 miles    
Events Rain    
Averages and records for this station are not official NWS values.
T = Trace of Precipitation, MM = Missing Value Source: NWS Daily Summary

Daily Weather History Graph

Daily Weather History Graph

Search for Another Location

Airport or City:

Astronomy

Aug. 14, 2019 Rise Set
Actual Time 6:31 AM EDT 8:01 PM EDT
Civil Twilight 6:04 AM EDT 8:28 PM EDT
Nautical Twilight 5:31 AM EDT 9:00 PM EDT
Astronomical Twilight 4:57 AM EDT 9:34 PM EDT
Moon 7:51 PM EDT (8/14) 5:30 AM EDT (8/14)
Length of Visible Light 14h 24m
Length of Day
13h 30m
Waxing Gibbous, 99% of the Moon is Illuminated
Aug 14
Waxing Gibbous
Aug 15
Full
Aug 23
Last Quarter
Aug 30
New
Sep 5
First Quarter

Hourly Weather History & Observations

Time (EDT) Temp. Heat Index Dew Point Humidity Pressure Visibility Wind Dir Wind Speed Gust Speed Precip Events Conditions
12:15 AM 78.8 °F - 73.4 °F 83% 29.88 in 10.0 mi Calm Calm - N/A   Clear
12:35 AM 78.8 °F - 75.2 °F 89% 29.87 in 10.0 mi Calm Calm - N/A   Clear
12:55 AM 78.8 °F - 75.2 °F 89% 29.87 in 10.0 mi SSW 3.5 mph - N/A   Clear
1:15 AM 78.8 °F - 75.2 °F 89% 29.86 in 10.0 mi SW 5.8 mph - N/A   Clear
1:35 AM 78.8 °F - 75.2 °F 89% 29.86 in 10.0 mi SSW 3.5 mph - N/A   Clear
1:55 AM 78.8 °F - 75.2 °F 89% 29.86 in 10.0 mi WSW 3.5 mph - N/A   Clear
2:15 AM 78.8 °F - 75.2 °F 89% 29.86 in 10.0 mi Calm Calm - N/A   Clear
2:35 AM 78.8 °F - 75.2 °F 89% 29.85 in 10.0 mi SW 4.6 mph - N/A   Clear
2:55 AM 78.8 °F - 75.2 °F 89% 29.85 in 7.0 mi SSW 3.5 mph - N/A   Clear
3:15 AM 77.0 °F - 77.0 °F 100% 29.85 in 7.0 mi Calm Calm - N/A   Clear
3:35 AM 77.0 °F - 77.0 °F 100% 29.85 in 7.0 mi Calm Calm - N/A   Clear
3:55 AM 77.0 °F - 77.0 °F 100% 29.86 in 7.0 mi SW 3.5 mph - N/A   Clear
4:15 AM 77.0 °F - 77.0 °F 100% 29.87 in 7.0 mi WSW 4.6 mph - N/A   Clear
4:35 AM 77.0 °F - 75.2 °F 94% 29.86 in 7.0 mi SW 3.5 mph - N/A   Clear
4:55 AM 77.0 °F - 77.0 °F 100% 29.87 in 7.0 mi West 5.8 mph - N/A   Scattered Clouds
5:15 AM 77.0 °F - 75.2 °F 94% 29.88 in 7.0 mi West 3.5 mph - N/A   Scattered Clouds
5:35 AM 77.0 °F - 75.2 °F 94% 29.88 in 7.0 mi West 4.6 mph - N/A   Mostly Cloudy
5:55 AM 78.8 °F - 75.2 °F 89% 29.88 in 10.0 mi West 4.6 mph - N/A   Overcast
6:15 AM 78.8 °F - 75.2 °F 89% 29.88 in 10.0 mi West 4.6 mph - N/A   Scattered Clouds
6:35 AM 77.0 °F - 75.2 °F 94% 29.88 in 7.0 mi WNW 3.5 mph - N/A   Clear
6:55 AM 77.0 °F - 75.2 °F 94% 29.88 in 7.0 mi Calm Calm - N/A   Clear
7:15 AM 75.2 °F - 75.2 °F 100% 29.88 in 7.0 mi SSE 3.5 mph - N/A   Clear
7:35 AM 77.0 °F - 75.2 °F 94% 29.87 in 7.0 mi Calm Calm - N/A   Clear
7:55 AM 77.0 °F - 75.2 °F 94% 29.86 in 10.0 mi Calm Calm - N/A   Clear
8:15 AM 78.8 °F - 75.2 °F 89% 29.86 in 10.0 mi Calm Calm - N/A   Clear
8:35 AM 78.8 °F - 75.2 °F 89% 29.86 in 10.0 mi South 4.6 mph - N/A   Clear
8:55 AM 80.6 °F 86.2 °F 75.2 °F 84% 29.87 in 10.0 mi SW 4.6 mph - N/A   Clear
9:15 AM 80.6 °F 85.4 °F 73.4 °F 79% 29.87 in 10.0 mi Calm Calm - N/A   Clear
9:35 AM 82.4 °F 89.5 °F 75.2 °F 79% 29.87 in 10.0 mi South 4.6 mph - N/A   Clear
9:55 AM 82.4 °F 88.2 °F 73.4 °F 74% 29.89 in 10.0 mi SSW 4.6 mph - N/A   Clear
10:15 AM 84.2 °F 90.9 °F 73.4 °F 70% 29.89 in 10.0 mi SW 4.6 mph - N/A   Clear
10:35 AM 84.2 °F 90.9 °F 73.4 °F 70% 29.89 in 10.0 mi SW 3.5 mph - N/A   Clear
10:55 AM 86.0 °F 95.1 °F 75.2 °F 70% 29.89 in 10.0 mi WSW 6.9 mph - N/A   Clear
11:15 AM 86.0 °F 95.1 °F 75.2 °F 70% 29.89 in 7.0 mi West 4.6 mph - N/A   Clear
11:35 AM 87.8 °F 95.6 °F 73.4 °F 62% 29.90 in 10.0 mi WSW 8.1 mph - N/A   Clear
11:55 AM 87.8 °F 95.6 °F 73.4 °F 62% 29.89 in 10.0 mi WNW 6.9 mph - N/A   Scattered Clouds
12:35 PM 89.6 °F 98.2 °F 73.4 °F 59% 29.89 in 10.0 mi WNW 6.9 mph - N/A   Clear
12:55 PM 91.4 °F 102.5 °F 75.2 °F 59% 29.88 in 10.0 mi WSW 6.9 mph - N/A   Scattered Clouds
1:15 PM 89.6 °F 98.2 °F 73.4 °F 59% 29.88 in 10.0 mi SW 8.1 mph - N/A   Scattered Clouds
1:35 PM 91.4 °F 100.1 °F 73.4 °F 55% 29.88 in 10.0 mi West 6.9 mph - N/A   Scattered Clouds
1:55 PM 89.6 °F 98.2 °F 73.4 °F 59% 29.88 in 10.0 mi SSW 3.5 mph - N/A   Scattered Clouds
2:15 PM 91.4 °F 102.5 °F 75.2 °F 59% 29.87 in 10.0 mi WSW 5.8 mph - N/A   Scattered Clouds
2:35 PM 91.4 °F 100.1 °F 73.4 °F 55% 29.87 in 10.0 mi West 4.6 mph - N/A   Scattered Clouds
2:55 PM 91.4 °F 100.1 °F 73.4 °F 55% 29.86 in 10.0 mi SSW 4.6 mph - N/A   Scattered Clouds
3:15 PM 91.4 °F 100.1 °F 73.4 °F 55% 29.86 in 10.0 mi SW 3.5 mph - N/A   Scattered Clouds
3:35 PM 91.4 °F 100.1 °F 73.4 °F 55% 29.85 in 10.0 mi SW 3.5 mph - N/A   Scattered Clouds
3:55 PM 93.2 °F 102.4 °F 73.4 °F 52% 29.84 in 10.0 mi WSW 5.8 mph - N/A   Clear
4:15 PM 93.2 °F 102.4 °F 73.4 °F 52% 29.83 in 10.0 mi West 6.9 mph - N/A   Clear
4:35 PM 93.2 °F 102.4 °F 73.4 °F 52% 29.84 in 10.0 mi WSW 5.8 mph - N/A   Clear
4:55 PM 95.0 °F 104.5 °F 73.4 °F 49% 29.82 in 10.0 mi WSW 6.9 mph - N/A   Scattered Clouds
5:15 PM 93.2 °F 105.0 °F 75.2 °F 56% 29.82 in 10.0 mi SW 4.6 mph - N/A   Clear
5:35 PM 93.2 °F 102.4 °F 73.4 °F 52% 29.81 in 10.0 mi WSW 5.8 mph - N/A   Clear
5:55 PM 93.2 °F 102.4 °F 73.4 °F 52% 29.82 in 10.0 mi Calm Calm - N/A   Clear
6:15 PM 93.2 °F 102.4 °F 73.4 °F 52% 29.82 in 10.0 mi WSW 5.8 mph - N/A   Scattered Clouds
6:35 PM 87.8 °F 99.7 °F 77.0 °F 70% 29.84 in 10.0 mi South 6.9 mph - N/A   Mostly Cloudy
6:55 PM 86.0 °F 95.1 °F 75.2 °F 70% 29.85 in 10.0 mi South 5.8 mph - N/A   Overcast
7:15 PM 84.2 °F 90.9 °F 73.4 °F 70% 29.86 in 10.0 mi SSE 5.8 mph - N/A   Scattered Clouds
7:35 PM 84.2 °F 90.9 °F 73.4 °F 70% 29.87 in 10.0 mi SSE 6.9 mph - N/A   Mostly Cloudy
7:55 PM 82.4 °F 89.5 °F 75.2 °F 79% 29.87 in 7.0 mi South 6.9 mph - N/A Rain Light Rain
8:15 PM 77.0 °F - 77.0 °F 100% 29.87 in 5.0 mi SSE 4.6 mph - 0.05 in Rain Light Rain
8:35 PM 77.0 °F - 77.0 °F 100% 29.88 in 3.0 mi WSW 3.5 mph - 0.07 in Rain Light Rain
8:55 PM 77.0 °F - - N/A% 29.88 in 2.5 mi Calm Calm - 0.22 in Rain Light Rain
9:15 PM 77.0 °F - - N/A% 29.90 in 4.0 mi SW 4.6 mph - N/A   Scattered Clouds
9:35 PM 77.0 °F - 77.0 °F 100% 29.90 in 7.0 mi WSW 10.4 mph - N/A Rain Light Rain
9:55 PM 77.0 °F - 77.0 °F 100% 29.90 in 5.0 mi WSW 5.8 mph - 0.03 in Rain Light Rain
10:15 PM 77.0 °F - 77.0 °F 100% 29.91 in 5.0 mi SW 3.5 mph - 0.02 in Rain Light Rain
10:35 PM 77.0 °F - 75.2 °F 94% 29.92 in 7.0 mi WSW 5.8 mph - 0.04 in Rain Light Rain
10:55 PM 77.0 °F - 75.2 °F 94% 29.93 in 10.0 mi NNW 5.8 mph - 0.06 in Rain Light Rain
11:15 PM 75.2 °F - 75.2 °F 100% 29.94 in 7.0 mi NW 3.5 mph - 0.01 in Rain Light Rain
11:35 PM 75.2 °F - 75.2 °F 100% 29.94 in 5.0 mi Calm Calm - 0.01 in Rain Light Rain
11:55 PM 75.2 °F - - N/A% 29.94 in 4.0 mi Calm Calm - 0.03 in Rain Light Rain